M I D A S
Marine Information and Data Acquisition System
Tripno 312 of the Zeeleeuw from 2002-08-28 07:07:12 to 2002-08-28 10:53:29
Back to CruiseResearch ActivitiesStationsMapUnderway DataData graphs

EquipmentUnitsComment
TimeDGPSUTC
LatitudeDGPSDM.mWGS84
LongitudeDGPSDM.mWGS84
TemperatureSBE03/SBE38deg celciusITS90
ConductivitySBE21S/mITS90
SalinitySBE21 Practical Salinity Units
ChlorophylAChelsea fluorimeterg/lCalibrated in Aceton
Missing or incorrect values are displayed as -999
Sea surface data collected by the RV Zeeleeuw from 2002-08-28 07:07:12 to 2002-08-28 10:53:29
Time Latitude Longitude Temperature Conductivity Salinity ChlorophylA
2002-08-28 07:08:16 51°14.745 2°54.682 -999 -999 -999  
2002-08-28 07:09:15 51°14.928 2°54.532 -999 -999 -999  
2002-08-28 07:10:16 51°15.119 2°54.377 -999 -999 -999  
2002-08-28 07:11:16 51°15.308 2°54.226 -999 -999 -999  
2002-08-28 07:12:16 51°15.5 2°54.07 -999 -999 -999  
2002-08-28 07:13:16 51°15.687 2°53.903 -999 -999 -999  
2002-08-28 07:14:16 51°15.873 2°53.732 -999 -999 -999  
2002-08-28 07:15:16 51°16.061 2°53.57 -999 -999 -999  
2002-08-28 07:16:16 51°16.25 2°53.408 -999 -999 -999  
2002-08-28 07:17:16 51°16.439 2°53.245 -999 -999 -999  
2002-08-28 07:18:16 51°16.629 2°53.083 -999 -999 -999  
2002-08-28 07:19:16 51°16.814 2°52.914 -999 -999 -999  
2002-08-28 07:20:16 51°17 2°52.739 -999 -999 -999  
2002-08-28 07:21:16 51°17.194 2°52.592 -999 -999 -999  
2002-08-28 07:22:16 51°17.405 2°52.545 -999 -999 -999  
2002-08-28 07:23:16 51°17.629 2°52.541 -999 -999 -999  
2002-08-28 07:24:16 51°17.854 2°52.53 -999 -999 -999  
2002-08-28 07:25:16 51°18.08 2°52.513 -999 -999 -999  
2002-08-28 07:26:16 51°18.307 2°52.492 -999 -999 -999  
2002-08-28 07:27:16 51°18.489 2°52.65 -999 -999 -999  
2002-08-28 07:28:16 51°18.568 2°52.969 -999 -999 -999  
2002-08-28 07:29:14 51°18.629 2°53.291 -999 -999 -999  
2002-08-28 07:30:16 51°18.692 2°53.638 -999 -999 -999  
2002-08-28 07:31:16 51°18.751 2°53.975 -999 -999 -999  
2002-08-28 07:32:15 51°18.81 2°54.306 -999 -999 -999  
2002-08-28 07:33:14 51°18.866 2°54.636 -999 -999 -999  
2002-08-28 07:34:14 51°18.924 2°54.971 -999 -999 -999  
2002-08-28 07:35:16 51°18.983 2°55.317 -999 -999 -999  
2002-08-28 07:36:14 51°19.04 2°55.64 -999 -999 -999  
2002-08-28 07:37:14 51°19.097 2°55.974 -999 -999 -999  
2002-08-28 07:38:15 51°19.156 2°56.313 -999 -999 -999  
2002-08-28 07:39:16 51°19.219 2°56.651 -999 -999 -999  
2002-08-28 07:40:15 51°19.299 2°56.967 -999 -999 -999  
2002-08-28 07:41:15 51°19.379 2°57.289 -999 -999 -999  
2002-08-28 07:42:16 51°19.461 2°57.615 -999 -999 -999  
2002-08-28 07:43:16 51°19.537 2°57.937 -999 -999 -999  
2002-08-28 07:44:15 51°19.616 2°58.251 -999 -999 -999  
2002-08-28 07:45:14 51°19.692 2°58.569 -999 -999 -999  
2002-08-28 07:46:16 51°19.771 2°58.901 -999 -999 -999  
2002-08-28 07:47:16 51°19.846 2°59.218 -999 -999 -999  
2002-08-28 07:48:14 51°19.918 2°59.524 -999 -999 -999  
2002-08-28 07:49:14 51°19.994 2°59.837 -999 -999 -999  
2002-08-28 07:50:16 51°20.072 3°0.161 -999 -999 -999  
2002-08-28 07:51:16 51°20.148 3°0.472 -999 -999 -999  
2002-08-28 07:52:14 51°20.23 3°0.766 -999 -999 -999  
2002-08-28 07:53:14 51°20.314 3°1.07 -999 -999 -999  
2002-08-28 07:54:16 51°20.396 3°1.384 -999 -999 -999  
2002-08-28 07:55:16 51°20.477 3°1.686 -999 -999 -999  
2002-08-28 07:56:14 51°20.556 3°1.979 -999 -999 -999  
2002-08-28 07:57:14 51°20.639 3°2.281 -999 -999 -999  
2002-08-28 07:58:15 51°20.721 3°2.586 -999 -999 -999  
2002-08-28 07:59:14 51°20.801 3°2.881 -999 -999 -999  
2002-08-28 08:00:16 51°20.883 3°3.19 -999 -999 -999  
2002-08-28 08:01:16 51°20.973 3°3.485 -999 -999 -999  
2002-08-28 08:02:16 51°21.064 3°3.778 -999 -999 -999  
2002-08-28 08:03:14 51°21.152 3°4.062 -999 -999 -999  
2002-08-28 08:04:16 51°21.241 3°4.366 -999 -999 -999  
2002-08-28 08:05:16 51°21.33 3°4.662 -999 -999 -999  
2002-08-28 08:06:15 51°21.415 3°4.952 -999 -999 -999  
2002-08-28 08:07:16 51°21.505 3°5.249 -999 -999 -999  
2002-08-28 08:08:16 51°21.59 3°5.543 -999 -999 -999  
2002-08-28 08:09:16 51°21.667 3°5.843 -999 -999 -999  
2002-08-28 08:10:16 51°21.742 3°6.145 -999 -999 -999  
2002-08-28 08:11:16 51°21.792 3°6.458 -999 -999 -999  
2002-08-28 08:12:16 51°21.848 3°6.769 -999 -999 -999  
2002-08-28 08:13:16 51°21.903 3°7.079 -999 -999 -999  
2002-08-28 08:14:15 51°21.947 3°7.392 -999 -999 -999  
2002-08-28 08:15:15 51°21.99 3°7.709 -999 -999 -999  
2002-08-28 08:16:16 51°22.032 3°8.032 -999 -999 -999  
2002-08-28 08:17:16 51°22.075 3°8.342 -999 -999 -999  
2002-08-28 08:18:15 51°22.107 3°8.628 -999 -999 -999  
2002-08-28 08:19:16 51°22.1 3°8.859 -999 -999 -999  
2002-08-28 08:20:15 51°22.096 3°9.069 -999 -999 -999  
2002-08-28 08:21:15 51°22.094 3°9.288 -999 -999 -999  
2002-08-28 08:22:15 51°22.116 3°9.583 -999 -999 -999  
2002-08-28 08:23:16 51°22.179 3°9.881 -999 -999 -999  
2002-08-28 08:24:15 51°22.239 3°10.171 -999 -999 -999  
2002-08-28 08:25:15 51°22.296 3°10.473 -999 -999 -999  
2002-08-28 08:26:17 51°22.358 3°10.783 -999 -999 -999  
2002-08-28 08:27:15 51°22.409 3°11.068 -999 -999 -999  
2002-08-28 08:28:15 51°22.454 3°11.371 -999 -999 -999  
2002-08-28 08:29:17 51°22.5 3°11.683 -999 -999 -999  
2002-08-28 08:30:16 51°22.537 3°11.983 -999 -999 -999  
2002-08-28 08:31:16 51°22.578 3°12.286 -999 -999 -999  
2002-08-28 08:32:15 51°22.615 3°12.584 -999 -999 -999  
2002-08-28 08:33:16 51°22.652 3°12.893 -999 -999 -999  
2002-08-28 08:34:15 51°22.692 3°13.19 -999 -999 -999  
2002-08-28 08:35:15 51°22.732 3°13.493 -999 -999 -999  
2002-08-28 08:36:16 51°22.771 3°13.802 -999 -999 -999  
2002-08-28 08:37:16 51°22.81 3°14.102 -999 -999 -999  
2002-08-28 08:38:15 51°22.849 3°14.396 -999 -999 -999  
2002-08-28 08:39:16 51°22.89 3°14.703 -999 -999 -999  
2002-08-28 08:40:16 51°22.93 3°15.008 -999 -999 -999  
2002-08-28 08:41:15 51°22.97 3°15.307 -999 -999 -999  
2002-08-28 08:42:16 51°23.007 3°15.615 -999 -999 -999  
2002-08-28 08:43:16 51°23.042 3°15.912 -999 -999 -999  
2002-08-28 08:44:15 51°23.076 3°16.199 -999 -999 -999  
2002-08-28 08:45:16 51°23.229 3°16.347 -999 -999 -999  
2002-08-28 08:46:16 51°23.438 3°16.33 -999 -999 -999  
2002-08-28 08:47:17 51°23.661 3°16.297 -999 -999 -999  
2002-08-28 08:48:15 51°23.881 3°16.257 -999 -999 -999  
2002-08-28 08:49:16 51°24.116 3°16.215 -999 -999 -999  
2002-08-28 08:50:16 51°24.347 3°16.178 -999 -999 -999  
2002-08-28 08:51:15 51°24.56 3°15.985 -999 -999 -999  
2002-08-28 08:52:16 51°24.656 3°15.583 -999 -999 -999  
2002-08-28 08:53:16 51°24.628 3°15.149 -999 -999 -999  
2002-08-28 08:54:17 51°24.607 3°14.7 -999 -999 -999  
2002-08-28 08:55:16 51°24.592 3°14.267 -999 -999 -999  
2002-08-28 08:56:15 51°24.567 3°13.833 -999 -999 -999  
2002-08-28 08:57:16 51°24.54 3°13.388 -999 -999 -999  
2002-08-28 08:58:16 51°24.515 3°12.957 -999 -999 -999  
2002-08-28 08:59:14 51°24.485 3°12.54 -999 -999 -999  
2002-08-28 09:00:15 51°24.456 3°12.102 -999 -999 -999  
2002-08-28 09:01:17 51°24.418 3°11.66 -999 -999 -999  
2002-08-28 09:02:21 51°24.381 3°11.206 -999 -999 -999  
2002-08-28 09:03:22 51°24.347 3°10.781 -999 -999 -999  
2002-08-28 09:04:21 51°24.33 3°10.37 -999 -999 -999  
2002-08-28 09:05:21 51°24.357 3°9.961 -999 -999 -999  
2002-08-28 09:06:22 51°24.441 3°9.573 -999 -999 -999  
2002-08-28 09:07:26 51°24.542 3°9.174 -999 -999 -999  
2002-08-28 09:08:26 51°24.631 3°8.798 -999 -999 -999  
2002-08-28 09:09:26 51°24.721 3°8.426 -999 -999 -999  
2002-08-28 09:10:27 51°24.811 3°8.055 -999 -999 -999  
2002-08-28 09:11:27 51°24.914 3°7.703 -999 -999 -999  
2002-08-28 09:12:26 51°25.093 3°7.5 -999 -999 -999  
2002-08-28 09:13:31 51°25.319 3°7.502 -999 -999 -999  
2002-08-28 09:14:31 51°25.511 3°7.633 -999 -999 -999  
2002-08-28 09:15:35 51°25.719 3°7.775 -999 -999 -999  
2002-08-28 09:16:37 51°25.915 3°7.93 -999 -999 -999  
2002-08-28 09:17:36 51°26.103 3°8.076 -999 -999 -999  
2002-08-28 09:18:36 51°26.295 3°8.228 -999 -999 -999  
2002-08-28 09:19:35 51°26.482 3°8.387 -999 -999 -999  
2002-08-28 09:20:37 51°26.676 3°8.562 -999 -999 -999  
2002-08-28 09:21:37 51°26.864 3°8.732 -999 -999 -999  
2002-08-28 09:22:36 51°27.046 3°8.901 -999 -999 -999  
2002-08-28 09:23:35 51°27.229 3°9.071 -999 -999 -999  
2002-08-28 09:24:35 51°27.414 3°9.239 -999 -999 -999  
2002-08-28 09:25:35 51°27.599 3°9.411 -999 -999 -999  
2002-08-28 09:26:37 51°27.79 3°9.591 -999 -999 -999  
2002-08-28 09:27:35 51°27.983 3°9.702 -999 -999 -999  
2002-08-28 09:28:36 51°28.192 3°9.803 -999 -999 -999  
2002-08-28 09:29:37 51°28.381 3°9.964 -999 -999 -999  
2002-08-28 09:30:35 51°28.554 3°10.133 -999 -999 -999  
2002-08-28 09:31:35 51°28.737 3°10.3 -999 -999 -999  
2002-08-28 09:32:35 51°28.923 3°10.181 -999 -999 -999  
2002-08-28 09:33:36 51°28.936 3°9.803 -999 -999 -999  
2002-08-28 09:34:34 51°28.783 3°9.51 -999 -999 -999  
2002-08-28 09:35:36 51°28.599 3°9.213 -999 -999 -999  
2002-08-28 09:36:37 51°28.396 3°8.961 -999 -999 -999  
2002-08-28 09:37:36 51°28.191 3°8.739 -999 -999 -999  
2002-08-28 09:38:35 51°27.982 3°8.519 -999 -999 -999  
2002-08-28 09:39:36 51°27.773 3°8.287 -999 -999 -999  
2002-08-28 09:40:37 51°27.561 3°8.059 -999 -999 -999  
2002-08-28 09:41:35 51°27.352 3°7.854 -999 -999 -999  
2002-08-28 09:42:37 51°27.136 3°7.619 -999 -999 -999  
2002-08-28 09:43:37 51°26.921 3°7.404 -999 -999 -999  
2002-08-28 09:44:37 51°26.706 3°7.19 -999 -999 -999  
2002-08-28 09:45:36 51°26.498 3°6.972 -999 -999 -999  
2002-08-28 09:46:37 51°26.282 3°6.752 -999 -999 -999  
2002-08-28 09:47:37 51°26.076 3°6.522 -999 -999 -999  
2002-08-28 09:48:34 51°25.939 3°6.21 -999 -999 -999  
2002-08-28 09:49:37 51°25.792 3°5.859 -999 -999 -999  
2002-08-28 09:50:35 51°25.643 3°5.545 -999 -999 -999  
2002-08-28 09:51:37 51°25.486 3°5.211 -999 -999 -999  
2002-08-28 09:52:42 51°25.32 3°4.859 -999 -999 -999  
2002-08-28 09:53:42 51°25.156 3°4.547 -999 -999 -999  
2002-08-28 09:54:42 51°24.965 3°4.281 -999 -999 -999  
2002-08-28 09:55:42 51°24.753 3°4.062 -999 -999 -999  
2002-08-28 09:56:42 51°24.517 3°3.931 -999 -999 -999  
2002-08-28 09:57:43 51°24.276 3°3.9 -999 -999 -999  
2002-08-28 09:58:42 51°24.041 3°3.83 -999 -999 -999  
2002-08-28 09:59:42 51°23.803 3°3.722 -999 -999 -999  
2002-08-28 10:00:42 51°23.579 3°3.545 -999 -999 -999  
2002-08-28 10:01:43 51°23.369 3°3.314 -999 -999 -999  
2002-08-28 10:02:42 51°23.155 3°3.103 -999 -999 -999  
2002-08-28 10:03:42 51°22.932 3°2.906 -999 -999 -999  
2002-08-28 10:04:42 51°22.713 3°2.703 -999 -999 -999  
2002-08-28 10:05:43 51°22.491 3°2.503 -999 -999 -999  
2002-08-28 10:06:42 51°22.274 3°2.306 -999 -999 -999  
2002-08-28 10:07:43 51°22.067 3°2.06 -999 -999 -999  
2002-08-28 10:08:43 51°21.913 3°1.736 -999 -999 -999  
2002-08-28 10:09:42 51°21.769 3°1.404 -999 -999 -999  
2002-08-28 10:10:42 51°21.625 3°1.065 -999 -999 -999  
2002-08-28 10:11:42 51°21.491 3°0.713 -999 -999 -999  
2002-08-28 10:12:43 51°21.349 3°0.36 -999 -999 -999  
2002-08-28 10:13:42 51°21.209 3°0.019 -999 -999 -999  
2002-08-28 10:14:42 51°21.066 2°59.673 -999 -999 -999  
2002-08-28 10:15:43 51°20.927 2°59.314 -999 -999 -999  
2002-08-28 10:16:43 51°20.79 2°58.963 -999 -999 -999  
2002-08-28 10:17:42 51°20.656 2°58.619 -999 -999 -999  
2002-08-28 10:18:42 51°20.519 2°58.271 -999 -999 -999  
2002-08-28 10:19:43 51°20.378 2°57.915 -999 -999 -999  
2002-08-28 10:20:42 51°20.241 2°57.573 -999 -999 -999  
2002-08-28 10:21:43 51°20.105 2°57.217 -999 -999 -999  
2002-08-28 10:22:43 51°19.956 2°56.883 -999 -999 -999  
2002-08-28 10:23:43 51°19.808 2°56.544 -999 -999 -999  
2002-08-28 10:24:43 51°19.657 2°56.208 -999 -999 -999  
2002-08-28 10:25:42 51°19.512 2°55.875 -999 -999 -999  
2002-08-28 10:26:42 51°19.361 2°55.543 -999 -999 -999  
2002-08-28 10:27:42 51°19.213 2°55.207 -999 -999 -999  
2002-08-28 10:28:42 51°19.063 2°54.872 -999 -999 -999  
2002-08-28 10:29:43 51°18.911 2°54.53 -999 -999 -999  
2002-08-28 10:30:43 51°18.761 2°54.189 -999 -999 -999  
2002-08-28 10:31:42 51°18.611 2°53.858 -999 -999 -999  
2002-08-28 10:32:43 51°18.462 2°53.509 -999 -999 -999  
2002-08-28 10:33:43 51°18.312 2°53.169 -999 -999 -999  
2002-08-28 10:34:42 51°18.164 2°52.84 -999 -999 -999  
2002-08-28 10:35:42 51°17.983 2°52.554 -999 -999 -999  
2002-08-28 10:36:42 51°17.746 2°52.401 -999 -999 -999  
2002-08-28 10:37:42 51°17.495 2°52.341 -999 -999 -999  
2002-08-28 10:38:42 51°17.239 2°52.319 -999 -999 -999  
2002-08-28 10:39:42 51°17 2°52.408 -999 -999 -999  
2002-08-28 10:40:43 51°16.788 2°52.602 -999 -999 -999  
2002-08-28 10:41:43 51°16.592 2°52.822 -999 -999 -999  
2002-08-28 10:42:42 51°16.386 2°53.015 -999 -999 -999  
2002-08-28 10:43:42 51°16.173 2°53.2 -999 -999 -999  
2002-08-28 10:44:43 51°15.954 2°53.382 -999 -999 -999  
2002-08-28 10:45:42 51°15.741 2°53.546 -999 -999 -999  
2002-08-28 10:46:42 51°15.53 2°53.727 -999 -999 -999  
2002-08-28 10:47:42 51°15.317 2°53.897 -999 -999 -999  
2002-08-28 10:48:42 51°15.13 2°54.109 -999 -999 -999  
2002-08-28 10:49:42 51°14.931 2°54.293 -999 -999 -999  
2002-08-28 10:50:43 51°14.754 2°54.516 -999 -999 -999  
2002-08-28 10:51:42 51°14.594 2°54.713 -999 -999 -999  
2002-08-28 10:52:43 51°14.446 2°54.934 -999 -999 -999